Location: Amsterdam
(30.7274°N, 84.4357°W)
Time: 14:57:47
(UTC+00:00)

Vanguard 1 Rocket - Pass Details

Date: 16 February 2026
Orbit: 653 x 4214 km, 34.3° (Epoch: 6 March)

Event Time Altitude Azimuth Distance (km) Brightness Sun altitude
Rises 03:19:39 0° 287° (WNW) 7,808 12.8 -50.4°
Reaches altitude 10° 03:25:35 10° 279° (W) 7,097 12.4 -51.6°
Maximum altitude 03:45:59 33° 226° (SW) 5,636 11.3 -55.6°
Enters shadow 03:54:57 26° 196° (SSW) 5,726 11.2 -57.4°
